This demonstration page uses our WeatherBlox Daily Observations layout. Learn more.

Left ArrowRight Arrow

34.16533, -84.80231

Hourly Observations for October 20, 2020

Temp ( °F °C ) Dew Point ( °F °C ) Humidity (%) Winds ( mph kmh ) Pressure ( in mb ) Visibility ( mi km ) Precip ( " mm )
12:53 am 00:53 Clear 58 14.4 55 12.8 90 90 Calm 30.18 1022 10 16 0.00 0.00
1:53 am 01:53 Clear 60 15.6 56 13.3 86 86 Calm 30.16 1022 10 16 0.00 0.00
2:53 am 02:53 Clear 58 14.4 55 12.8 90 90 Calm 30.16 1022 10 16 0.00 0.00
3:53 am 03:53 Clear 58 14.4 55 12.8 90 90 Calm 30.16 1022 10 16 0.00 0.00
4:53 am 04:53 Clear 58 14.4 55 12.8 90 90 E 3 6 30.16 1021 10 16 0.00 0.00
5:53 am 05:53 Clear 58 14.4 55 12.8 90 90 Calm 30.18 1022 10 16 0.00 0.00
6:53 am 06:53 Clear 58 14.4 55 12.8 90 90 E 3 6 30.19 1022 10 16 0.00 0.00
7:53 am 07:53 Sunny 57 13.9 54 12.2 90 90 Calm 30.20 1023 10 16 0.00 0.00
8:53 am 08:53 Sunny 60 15.6 56 13.3 86 86 E 5 7 30.22 1023 10 16 0.00 0.00
9:53 am 09:53 Sunny 64 17.8 57 13.9 78 78 VRB 3 6 30.24 1024 10 16 0.00 0.00
10:53 am 10:53 Sunny 69 20.6 58 14.4 68 68 E 8 13 30.24 1024 10 16 0.00 0.00
11:53 am 11:53 Sunny 72 22.2 59 15 64 64 ENE 8 13 30.23 1024 10 16 0.00 0.00
12:53 pm 12:53 Sunny 76 24.4 60 15.6 58 58 VRB 6 9 30.21 1023 10 16 0.00 0.00
1:53 pm 13:53 Sunny 77 25 60 15.6 56 56 VRB 6 9 30.18 1022 10 16 0.00 0.00
2:53 pm 14:53 Sunny 79 26.1 60 15.6 52 52 VRB 6 9 30.15 1021 10 16 0.00 0.00
3:53 pm 15:53 Sunny 80 26.7 59 15 49 49 VRB 6 9 30.13 1020 10 16 0.00 0.00
4:53 pm 16:53 Sunny 80 26.7 59 15 49 49 ENE 3 6 30.12 1020 10 16 0.00 0.00
5:53 pm 17:53 Sunny 78 25.6 60 15.6 54 54 Calm 30.12 1020 10 16 0.00 0.00
6:53 pm 18:53 Sunny 68 20 63 17.2 84 84 Calm 30.13 1020 10 16 0.00 0.00
7:53 pm 19:53 Clear 65 18.3 61 16.1 87 87 Calm 30.14 1021 10 16 0.00 0.00
8:53 pm 20:53 Clear 62 16.7 59 15 90 90 Calm 30.15 1021 10 16 0.00 0.00
9:53 pm 21:53 Clear 62 16.7 58 14.4 86 86 Calm 30.16 1021 10 16 0.00 0.00
10:53 pm 22:53 Clear 61 16.1 58 14.4 90 90 Calm 30.16 1021 10 16 0.00 0.00
11:53 pm 23:53 Clear 64 17.8 59 15 84 84 Calm 30.16 1021 10 16 0.00 0.00

Powered by AerisWeather